Regional Weather Roundup
Issued by NWS

Home | Current Version | Previous Version | Text Only | Print | Product List | Glossary On
Versions: 1 2 3 4 5 6 7 8 9 10 11 12 13 14 15 16 17 18 19 20 21 22 23 24 25 26 27 28 29 30 31 32 33 34 35 36 37 38 39 40 41 42 43 44 45 46 47 48 49 50
000
ASUS44 KFWD 201215
RWRTX
NORTH TEXAS HOURLY WEATHER ROUNDUP
NATIONAL WEATHER SERVICE FORT WORTH TX
700 AM CDT WED SEP 20 2017

NOTE: "FAIR" INDICATES FEW OR NO CLOUDS BELOW 12,000 FEET WITH NO
SIGNIFICANT WEATHER AND/OR OBSTRUCTIONS TO VISIBILITY.

TXZ118-119-201300-
DALLAS/FORT WORTH METROPLEX

CITY           SKY/WX    TMP DP  RH WIND       PRES   REMARKS
DFW AIRPORT    PTCLDY    78  72  81 S12       29.85R
6HR MIN TEMP:  78; 6HR MAX TEMP:  84;

DALLAS LOVE    PTCLDY    79  71  76 S15       29.87R
6HR MIN TEMP:  79; 6HR MAX TEMP:  85;

FTW MEACHAM    CLEAR     79  72  79 S12       29.86R
6HR MIN TEMP:  79; 6HR MAX TEMP:  84;

DAL-EXECUTIVE  PTCLDY    77  73  87 S13G21    29.87R
6HR MIN TEMP:  77; 6HR MAX TEMP:  83;

FTW-ALLIANCE   PTCLDY    77  71  82 S10       29.85R
6HR MIN TEMP:  76; 6HR MAX TEMP:  80;

FTW-NAS-JRB    MOCLDY    78  70  76 S14       29.86R
6HR MIN TEMP:  78; 6HR MAX TEMP:  84;

FTW-SPINKS     CLEAR     77  70  78 S12       29.88R
ARLINGTON      PTCLDY    77  73  87 SE12      29.87R
6HR MIN TEMP:  77; 6HR MAX TEMP:  82;

GRAND PRAIRIE  CLEAR     77  70  78 SE12G21   29.88R
ADDISON        CLEAR     79  70  73 S10G18    29.88R
MESQUITE       MOCLDY    75  72  88 SE8G16    29.89R
LANCASTER      CLEAR     76  71  84 S8        29.90R
6HR MIN TEMP:  76; 6HR MAX TEMP:  80;

$$

TXZ091>094-102>105-117-120-121-131>134-201300-
NORTH CENTRAL TEXAS

CITY           SKY/WX    TMP DP  RH WIND       PRES   REMARKS
SHRMAN/DENISON CLEAR     76  72  86 S10       29.88R
6HR MIN TEMP:  76; 6HR MAX TEMP:  80;

GAINESVILLE    CLEAR     75  70  86 S8        29.88R
6HR MIN TEMP:  73; 6HR MAX TEMP:  78;

BOWIE          CLEAR     74  71  89 SE8       29.85R
6HR MIN TEMP:  73; 6HR MAX TEMP:  75;

BRIDGEPORT     CLEAR     75  70  83 SE5       29.86R
6HR MIN TEMP:  75; 6HR MAX TEMP:  79;

DECATUR        CLEAR     76  70  84 S13       29.85R
6HR MIN TEMP:  76; 6HR MAX TEMP:  79;

DENTON         CLEAR     76  72  87 S12       29.86R
6HR MIN TEMP:  74; 6HR MAX TEMP:  79;

MCKINNEY       CLEAR     76  73  91 S12       29.88R
6HR MIN TEMP:  76; 6HR MAX TEMP:  82;

BONHAM         CLOUDY    75  70  83 S14       29.88R
GREENVILLE     CLOUDY    79  73  83 S9        29.91R
ROCKWALL       CLEAR     76  73  88 S16G26    29.89R
6HR MIN TEMP:  76; 6HR MAX TEMP:  80;

TERRELL        MOCLDY    77  72  84 S8        29.90R
6HR MIN TEMP:  77; 6HR MAX TEMP:  81;

WAXAHACHIE     MOCLDY    74  72  91 S7        29.90R
6HR MIN TEMP:  74; 6HR MAX TEMP:  80;

CLEBURNE       CLEAR     75  75 100 S13       29.90R
GRANBURY       CLEAR     78  70  76 SE9       29.87S
6HR MIN TEMP:  78; 6HR MAX TEMP:  83;

$$

TXZ083>090-098>101-113>116-127>130-139>142-154-155-201300-
WESTERN NORTH TEXAS

CITY           SKY/WX    TMP DP  RH WIND       PRES   REMARKS
WICHITA FALLS  PTCLDY    74  70  87 S14       29.79R
6HR MIN TEMP:  73; 6HR MAX TEMP:  76;

WF-KICKAPOO    CLEAR     74  71  89 S10G16    29.82R
6HR MIN TEMP:  73; 6HR MAX TEMP:  76;

VERNON         CLEAR     74  63  68 S14       29.78S
6HR MIN TEMP:  74; 6HR MAX TEMP: 101;

ABILENE        CLEAR     73  68  84 S12       29.86R
6HR MIN TEMP:  73; 6HR MAX TEMP:  78;

ABILENE-DYESS  PTCLDY    75  67  75 S18G25    29.83S
6HR MIN TEMP:  74; 6HR MAX TEMP:  80;

GRAHAM         CLEAR     76  71  82 S7        29.82S
6HR MIN TEMP:  76; 6HR MAX TEMP:  79;

BRECKENRIDGE   PTCLDY    78  70  77 S13G20    29.84R
6HR MIN TEMP:  77; 6HR MAX TEMP:  80;

CISCO          CLEAR     73  70  88 S16       29.87R FOG
EASTLAND       MOCLDY    74  70  88 S9        29.86R
6HR MIN TEMP:  73; 6HR MAX TEMP:  76;

RANGER         CLEAR     73  70  89 S10G16    29.87R
6HR MIN TEMP:  64; 6HR MAX TEMP:  97;

MINERAL WELLS  CLEAR     76  70  82 SE10      29.84R
6HR MIN TEMP:  75; 6HR MAX TEMP:  79;

STEPHENVILLE   CLEAR     74  69  85 S7        29.90S
6HR MIN TEMP:  74; 6HR MAX TEMP:  77;

COMANCHE       CLEAR     74  72  91 S12G17    29.89R
6HR MIN TEMP:  72; 6HR MAX TEMP:  76;

BROWNWOOD      CLOUDY    73  72  94 SE8       29.89S
COLEMAN        PTCLDY    71  68  91 S8        29.89R
6HR MIN TEMP:  69; 6HR MAX TEMP:  72;

$$

TXZ143>147-156>162-174-175-201300-
CENTRAL TEXAS

CITY           SKY/WX    TMP DP  RH WIND       PRES   REMARKS
WACO           CLOUDY    78  74  87 S14       29.89R
6HR MIN TEMP:  77; 6HR MAX TEMP:  82;

WACO-TSTC      CLOUDY    77  73  88 S7        29.90
WACO-MCGREGOR  MOCLDY    76  73  91 S13       29.90R
6HR MIN TEMP:  76; 6HR MAX TEMP:  82;

HILLSBORO      CLOUDY    77  73  86 S14       29.90R
6HR MIN TEMP:  76; 6HR MAX TEMP:  82;

CORSICANA      MOCLDY    76  74  93 S9        29.92R
6HR MIN TEMP:  75; 6HR MAX TEMP:  81;

MEXIA          MOCLDY    75  73  95 SE9       29.91R
6HR MIN TEMP:  75; 6HR MAX TEMP:  79;

HEARNE         PTCLDY    76  76 100 SE3       29.93R
6HR MIN TEMP:  76; 6HR MAX TEMP:  78;

CAMERON        PTCLDY    76  74  93 S6        29.91R
6HR MIN TEMP:  76; 6HR MAX TEMP:  80;

TEMPLE         CLOUDY    76  74  93 S18       29.90R
6HR MIN TEMP:  75; 6HR MAX TEMP:  80;

KILLEEN        CLEAR     74  71  91 S10       29.89R
6HR MIN TEMP:  74; 6HR MAX TEMP:  79;

FORT HOOD      PTCLDY    73  70  88 S9        29.87R
6HR MIN TEMP:  73; 6HR MAX TEMP:  78;

GATESVILLE     CLEAR     75  72  88 S6        29.91R
HAMILTON       PTCLDY    74  74  99 S12       29.91R
6HR MIN TEMP:  74; 6HR MAX TEMP:  78;

LAMPASAS       MOCLDY    76  73  91 S7        29.90R
6HR MIN TEMP:  76; 6HR MAX TEMP:  81;

$$

TXZ095>097-106>112-122>126-135>138-148>153-164>167-201300-
EAST TEXAS

CITY           SKY/WX    TMP DP  RH WIND       PRES   REMARKS
PARIS          CLOUDY    77  73  87 S7        29.91R
6HR MIN TEMP:  77; 6HR MAX TEMP:  78; 6HR PCP: TRACE;

SULPHUR SPRNGS CLOUDY    78  73  85 S12       29.93R
6HR MIN TEMP:  78; 6HR MAX TEMP:  81;

MOUNT PLEASANT CLOUDY    76  73  92 S6        29.93R
6HR MIN TEMP:  76; 6HR MAX TEMP:  78;

GILMER         CLOUDY    76  73  90 S7        29.92R
6HR MIN TEMP:  76; 6HR MAX TEMP:  79;

MINEOLA        MOCLDY    77  73  88 S7        29.91R
TYLER          MOCLDY    76  75  97 S10       29.91R
6HR MIN TEMP:  76; 6HR MAX TEMP:  79;

LONGVIEW       CLOUDY    77  76  96 S7        29.92R
6HR MIN TEMP:  77; 6HR MAX TEMP:  79;

MARSHALL       CLOUDY    75  72  90 S5        29.95R
6HR MIN TEMP:  75; 6HR MAX TEMP:  75;

ATHENS         CLOUDY    75  75 100 S10G16    29.91R
PALESTINE      MOCLDY    77  76  97 S6        29.93R
JACKSONVILLE   CLOUDY    75  75 100 S7        29.96R FOG
HENDERSON      CLOUDY    76  74  95 S5        29.94R
6HR MIN TEMP:  76; 6HR MAX TEMP:  77;

CENTER         CLOUDY    79  78  95 CALM      29.96R
6HR MIN TEMP:  79; 6HR MAX TEMP:  81;

NACOGDOCHES    CLOUDY    77  75  93 CALM      29.95R
6HR MIN TEMP:  77; 6HR MAX TEMP:  78;

LUFKIN         CLOUDY    76  75  97 SE6       29.93F
6HR MIN TEMP:  76; 6HR MAX TEMP:  77;

$$

SUPPLEMENTAL OBSERVATIONS (NWS FORT WORTH AREA)

CITY           SKY/WX    TMP DP  RH WIND       PRES   REMARKS
DENISON DAM      N/A     79  72  78 S6          N/A
CADDO GRASSLND   N/A     79  72  78 S8          N/A


USA.gov is the U.S. government's official web portal to all federal, state and local government web resources and services.